Location: Azul
(36.7830°S, 59.8500°W)
Time: 18:46:39
(UTC-03:00)

AO-109 - Pass Details

Date: 31 October 2021
Orbit: 474 x 522 km, 60.7° (Epoch: 06 December)

Event Time Altitude Azimuth Distance (km) Brightness Sun altitude
Rises 05:09:24 0° 205° (SSW) 2,688 ? -9.3°
Reaches altitude 10° 05:11:55 10° 192° (SSW) 1,791 ? -8.8°
Maximum altitude 05:15:18 25° 135° (SE) 1,091 ? -8.2°
Drops below altitude 10° 05:18:39 10° 77° (ENE) 1,764 ? -7.6°
Sets 05:21:06 0° 64° (ENE) 2,638 ? -7.2°
